| time (UTC) | temp C | wind direction | speed KPH | gust KPH | rain 1hr cm | rain 24hr cm | rain mn cm | humidity % | barometer mb |
| 20260504033043 | 15 | 0 | 0.0 | 1.6 | 0.00 | 0.00 | 0.00 | 36 | 1007.9 |
| 20260504032523 | 15 | 0 | 0.0 | 3.2 | 0.00 | 0.00 | 0.00 | 36 | 1007.9 |
| 20260504032023 | 16 | 0 | 0.0 | 4.8 | 0.00 | 0.00 | 0.00 | 35 | 1007.9 |
| 20260504031549 | 16 | 356 | 0.0 | 4.8 | 0.00 | 0.00 | 0.00 | 37 | 1007.7 |
| 20260504031025 | 16 | 324 | 1.6 | 6.4 | 0.00 | 0.00 | 0.00 | 30 | 1007.8 |
| 20260504030525 | 17 | 352 | 1.6 | 6.4 | 0.00 | 0.00 | 0.00 | 31 | 1007.8 |
| 20260504030055 | 17 | 319 | 3.2 | 6.4 | 0.00 | 0.00 | 0.00 | 29 | 1007.7 |
| 20260504025523 | 17 | 329 | 3.2 | 6.4 | 0.00 | 0.00 | 0.00 | 29 | 1007.7 |
| 20260504025026 | 17 | 327 | 3.2 | 6.4 | 0.00 | 0.00 | 0.00 | 30 | 1007.7 |
| 20260504024540 | 16 | 334 | 1.6 | 6.4 | 0.00 | 0.00 | 0.00 | 30 | 1007.7 |
| 20260504024026 | 16 | 335 | 1.6 | 4.8 | 0.00 | 0.00 | 0.00 | 33 | 1007.6 |
| 20260504023523 | 17 | 0 | 0.0 | 4.8 | 0.00 | 0.00 | 0.00 | 33 | 1007.7 |
| 20260504023038 | 17 | 0 | 0.0 | 4.8 | 0.00 | 0.00 | 0.00 | 34 | 1007.6 |
| 20260504022523 | 17 | 0 | 0.0 | 3.2 | 0.00 | 0.00 | 0.00 | 35 | 1007.6 |
| 20260504022024 | 18 | 0 | 0.0 | 3.2 | 0.00 | 0.00 | 0.00 | 34 | 1007.5 |
| 20260504021545 | 18 | 0 | 0.0 | 0.0 | 0.00 | 0.00 | 0.00 | 33 | 1007.6 |
| 20260504021025 | 18 | 0 | 0.0 | 3.2 | 0.00 | 0.00 | 0.00 | 32 | 1007.6 |
| 20260504020522 | 19 | 0 | 0.0 | 4.8 | 0.00 | 0.00 | 0.00 | 31 | 1007.6 |
| 20260504020039 | 19 | 0 | 1.6 | 4.8 | 0.00 | 0.00 | 0.00 | 32 | 1007.6 |
| 20260504015527 | 20 | 335 | 3.2 | 4.8 | 0.00 | 0.00 | 0.00 | 32 | 1007.5 |
| 20260504015023 | 21 | 238 | 1.6 | 3.2 | 0.00 | 0.00 | 0.00 | 29 | 1007.4 |
| 20260504014540 | 21 | 238 | 1.6 | 3.2 | 0.00 | 0.00 | 0.00 | 27 | 1007.4 |
| 20260504014023 | 22 | 238 | 0.0 | 3.2 | 0.00 | 0.00 | 0.00 | 25 | 1007.5 |
| 20260504013528 | 22 | 238 | 0.0 | 3.2 | 0.00 | 0.00 | 0.00 | 23 | 1007.5 |
| 20260504013044 | 23 | 238 | 0.0 | 3.2 | 0.00 | 0.00 | 0.00 | 23 | 1007.4 |
| 20260504012522 | 23 | 276 | 0.0 | 3.2 | 0.00 | 0.00 | 0.00 | 24 | 1007.5 |
| 20260504012022 | 23 | 0 | 0.0 | 6.4 | 0.00 | 0.00 | 0.00 | 23 | 1007.6 |
| 20260504011543 | 22 | 273 | 1.6 | 6.4 | 0.00 | 0.00 | 0.00 | 23 | 1007.7 |
| 20260504011030 | 22 | 265 | 0.0 | 6.4 | 0.00 | 0.00 | 0.00 | 26 | 1007.8 |
| 20260504010523 | 22 | 277 | 1.6 | 6.4 | 0.00 | 0.00 | 0.00 | 25 | 1007.7 |
| 20260504010053 | 23 | 259 | 1.6 | 6.4 | 0.00 | 0.00 | 0.00 | 24 | 1007.7 |
| 20260504005523 | 23 | 0 | 3.2 | 9.7 | 0.00 | 0.00 | 0.00 | 23 | 1007.8 |
| 20260504005023 | 22 | 250 | 3.2 | 9.7 | 0.00 | 0.00 | 0.00 | 25 | 1007.9 |
| 20260504004544 | 22 | 255 | 4.8 | 9.7 | 0.00 | 0.00 | 0.00 | 23 | 1007.9 |
| 20260504004026 | 22 | 247 | 3.2 | 9.7 | 0.00 | 0.00 | 0.00 | 23 | 1008.0 |
| 20260504003522 | 22 | 228 | 4.8 | 9.7 | 0.00 | 0.00 | 0.00 | 22 | 1008.0 |
| 20260504003038 | 23 | 234 | 3.2 | 6.4 | 0.00 | 0.00 | 0.00 | 23 | 1008.0 |
| 20260504002522 | 23 | 240 | 1.6 | 9.7 | 0.00 | 0.00 | 0.00 | 23 | 1008.1 |
| 20260504002023 | 23 | 250 | 3.2 | 9.7 | 0.00 | 0.00 | 0.00 | 23 | 1008.0 |
| 20260504001540 | 23 | 327 | 3.2 | 11.3 | 0.00 | 0.00 | 0.00 | 22 | 1008.2 |
| 20260504001022 | 23 | 297 | 3.2 | 12.9 | 0.00 | 0.00 | 0.00 | 25 | 1008.2 |
| 20260504000523 | 23 | 327 | 6.4 | 12.9 | 0.00 | 0.00 | 0.00 | 23 | 1008.5 |
| 20260504000046 | 23 | 278 | 3.2 | 14.5 | 0.00 | 0.00 | 0.00 | 23 | 1008.3 |
| 20260503235527 | 23 | 349 | 3.2 | 14.5 | 0.00 | 0.00 | 0.00 | 22 | 1008.5 |
| 20260503235027 | 23 | 347 | 3.2 | 14.5 | 0.00 | 0.00 | 0.00 | 24 | 1008.6 |
| 20260503234541 | 24 | 26 | 3.2 | 11.3 | 0.00 | 0.00 | 0.00 | 23 | 1008.6 |
| 20260503234026 | 23 | 209 | 4.8 | 11.3 | 0.00 | 0.00 | 0.00 | 22 | 1008.6 |
| 20260503233525 | 23 | 231 | 3.2 | 12.9 | 0.00 | 0.00 | 0.00 | 22 | 1008.8 |
| 20260503233039 | 23 | 284 | 1.6 | 14.5 | 0.00 | 0.00 | 0.00 | 22 | 1008.8 |
| 20260503232522 | 23 | 240 | 4.8 | 17.7 | 0.00 | 0.00 | 0.00 | 22 | 1008.8 |
| 20260503232025 | 23 | 352 | 6.4 | 17.7 | 0.00 | 0.00 | 0.00 | 23 | 1008.9 |
| 20260503231539 | 23 | 211 | 4.8 | 11.3 | 0.00 | 0.00 | 0.00 | 24 | 1009.0 |
| 20260503231023 | 23 | 264 | 3.2 | 14.5 | 0.00 | 0.00 | 0.00 | 26 | 1008.8 |
| 20260503230522 | 23 | 332 | 6.4 | 14.5 | 0.00 | 0.00 | 0.00 | 24 | 1008.9 |
| 20260503230103 | 23 | 328 | 3.2 | 16.1 | 0.00 | 0.00 | 0.00 | 24 | 1008.9 |
| 20260503225522 | 23 | 1 | 9.7 | 16.1 | 0.00 | 0.00 | 0.00 | 24 | 1009.1 |
| 20260503225023 | 23 | 280 | 3.2 | 19.3 | 0.00 | 0.00 | 0.00 | 24 | 1009.1 |
| 20260503224543 | 23 | 308 | 6.4 | 19.3 | 0.00 | 0.00 | 0.00 | 26 | 1009.1 |
| 20260503224022 | 23 | 352 | 9.7 | 19.3 | 0.00 | 0.00 | 0.00 | 25 | 1009.1 |
| 20260503223526 | 23 | 1 | 4.8 | 12.9 | 0.00 | 0.00 | 0.00 | 26 | 1009.1 |
| 20260503223049 | 23 | 360 | 1.6 | 9.7 | 0.00 | 0.00 | 0.00 | 27 | 1009.2 |
| 20260503222522 | 23 | 272 | 3.2 | 17.7 | 0.00 | 0.00 | 0.00 | 26 | 1009.3 |
| 20260503222022 | 23 | 350 | 6.4 | 17.7 | 0.00 | 0.00 | 0.00 | 27 | 1009.5 |
| 20260503221546 | 23 | 351 | 6.4 | 19.3 | 0.00 | 0.00 | 0.00 | 27 | 1009.4 |
| 20260503221023 | 22 | 333 | 3.2 | 19.3 | 0.00 | 0.00 | 0.00 | 27 | 1009.5 |
| 20260503220526 | 22 | 330 | 6.4 | 19.3 | 0.00 | 0.00 | 0.00 | 28 | 1009.7 |
| 20260503220039 | 22 | 317 | 12.9 | 22.5 | 0.00 | 0.00 | 0.00 | 26 | 1009.7 |
| 20260503215525 | 22 | 329 | 8.0 | 22.5 | 0.00 | 0.00 | 0.00 | 26 | 1009.8 |
| 20260503215025 | 23 | 338 | 8.0 | 17.7 | 0.00 | 0.00 | 0.00 | 28 | 1009.8 |
| 20260503214553 | 23 | 342 | 6.4 | 14.5 | 0.00 | 0.00 | 0.00 | 28 | 1010.0 |
| 20260503214026 | 22 | 278 | 6.4 | 17.7 | 0.00 | 0.00 | 0.00 | 28 | 1010.0 |
| 20260503213523 | 22 | 359 | 4.8 | 17.7 | 0.00 | 0.00 | 0.00 | 27 | 1010.1 |
| 20260503213040 | 22 | 337 | 6.4 | 16.1 | 0.00 | 0.00 | 0.00 | 27 | 1010.2 |
| 20260503212522 | 22 | 307 | 4.8 | 17.7 | 0.00 | 0.00 | 0.00 | 29 | 1010.3 |
| 20260503212023 | 22 | 324 | 9.7 | 17.7 | 0.00 | 0.00 | 0.00 | 29 | 1010.4 |
| 20260503211538 | 22 | 356 | 4.8 | 17.7 | 0.00 | 0.00 | 0.00 | 28 | 1010.6 |
| 20260503211022 | 22 | 211 | 8.0 | 17.7 | 0.00 | 0.00 | 0.00 | 28 | 1010.7 |
| 20260503210522 | 22 | 294 | 9.7 | 17.7 | 0.00 | 0.00 | 0.00 | 28 | 1010.7 |
| 20260503210038 | 22 | 242 | 6.4 | 20.9 | 0.00 | 0.00 | 0.00 | 29 | 1010.7 |
| 20260503205525 | 22 | 326 | 9.7 | 20.9 | 0.00 | 0.00 | 0.00 | 28 | 1010.9 |
| 20260503205026 | 22 | 339 | 9.7 | 22.5 | 0.00 | 0.00 | 0.00 | 29 | 1011.1 |
| 20260503204543 | 22 | 359 | 11.3 | 22.5 | 0.00 | 0.00 | 0.00 | 28 | 1011.3 |
| 20260503204026 | 22 | 350 | 4.8 | 12.9 | 0.00 | 0.00 | 0.00 | 31 | 1011.3 |
| 20260503203526 | 22 | 328 | 4.8 | 14.5 | 0.00 | 0.00 | 0.00 | 28 | 1011.5 |
| 20260503203039 | 22 | 0 | 4.8 | 16.1 | 0.00 | 0.00 | 0.00 | 26 | 1011.5 |
| 20260503202528 | 22 | 254 | 6.4 | 16.1 | 0.00 | 0.00 | 0.00 | 27 | 1011.6 |
| 20260503202026 | 22 | 344 | 3.2 | 11.3 | 0.00 | 0.00 | 0.00 | 29 | 1011.7 |
| 20260503201544 | 22 | 327 | 3.2 | 16.1 | 0.00 | 0.00 | 0.00 | 27 | 1011.8 |
| 20260503201023 | 22 | 342 | 3.2 | 16.1 | 0.00 | 0.00 | 0.00 | 27 | 1011.7 |
| 20260503200522 | 22 | 347 | 8.0 | 19.3 | 0.00 | 0.00 | 0.00 | 28 | 1011.9 |
| 20260503200038 | 22 | 314 | 6.4 | 19.3 | 0.00 | 0.00 | 0.00 | 28 | 1011.9 |
| 20260503195522 | 21 | 341 | 9.7 | 19.3 | 0.00 | 0.00 | 0.00 | 29 | 1011.9 |
| 20260503195023 | 21 | 341 | 4.8 | 19.3 | 0.00 | 0.00 | 0.00 | 28 | 1011.9 |
| 20260503194545 | 21 | 331 | 8.0 | 17.7 | 0.00 | 0.00 | 0.00 | 30 | 1011.9 |
| 20260503194022 | 21 | 354 | 6.4 | 16.1 | 0.00 | 0.00 | 0.00 | 31 | 1012.1 |
| 20260503193524 | 21 | 63 | 9.7 | 30.6 | 0.00 | 0.00 | 0.00 | 27 | 1012.2 |
| 20260503193044 | 21 | 13 | 6.4 | 30.6 | 0.00 | 0.00 | 0.00 | 29 | 1012.2 |
| 20260503192525 | 21 | 166 | 6.4 | 17.7 | 0.00 | 0.00 | 0.00 | 32 | 1012.4 |
| 20260503192029 | 21 | 232 | 4.8 | 16.1 | 0.00 | 0.00 | 0.00 | 32 | 1012.4 |
| 20260503191539 | 21 | 349 | 4.8 | 16.1 | 0.00 | 0.00 | 0.00 | 34 | 1012.6 |
| 20260503191026 | 20 | 30 | 8.0 | 16.1 | 0.00 | 0.00 | 0.00 | 31 | 1012.5 |
| 20260503190525 | 20 | 66 | 1.6 | 9.7 | 0.00 | 0.00 | 0.00 | 34 | 1012.8 |
| 20260503190043 | 20 | 325 | 3.2 | 9.7 | 0.00 | 0.00 | 0.00 | 36 | 1013.0 |
| 20260503185525 | 20 | 143 | 3.2 | 8.0 | 0.00 | 0.00 | 0.00 | 33 | 1012.9 |
| 20260503185029 | 20 | 154 | 3.2 | 9.7 | 0.00 | 0.00 | 0.00 | 40 | 1013.1 |
| 20260503184542 | 19 | 336 | 1.6 | 9.7 | 0.00 | 0.00 | 0.00 | 36 | 1013.1 |
| 20260503184026 | 19 | 96 | 4.8 | 11.3 | 0.00 | 0.00 | 0.00 | 36 | 1013.2 |
| 20260503183527 | 19 | 22 | 3.2 | 12.9 | 0.00 | 0.00 | 0.00 | 38 | 1013.4 |
| 20260503183043 | 19 | 43 | 3.2 | 16.1 | 0.00 | 0.00 | 0.00 | 37 | 1013.4 |
| 20260503182526 | 19 | 95 | 6.4 | 16.1 | 0.00 | 0.00 | 0.00 | 39 | 1013.5 |
| 20260503182025 | 19 | 51 | 4.8 | 16.1 | 0.00 | 0.00 | 0.00 | 37 | 1013.6 |
| 20260503181556 | 19 | 113 | 6.4 | 12.9 | 0.00 | 0.00 | 0.00 | 36 | 1013.6 |
| 20260503181026 | 19 | 61 | 4.8 | 12.9 | 0.00 | 0.00 | 0.00 | 36 | 1013.7 |
| 20260503180530 | 19 | 0 | 1.6 | 9.7 | 0.00 | 0.00 | 0.00 | 37 | 1013.8 |
| 20260503180047 | 18 | 179 | 3.2 | 11.3 | 0.00 | 0.00 | 0.00 | 37 | 1013.9 |
| 20260503175529 | 18 | 0 | 3.2 | 12.9 | 0.00 | 0.00 | 0.00 | 38 | 1013.9 |
| 20260503175031 | 18 | 82 | 6.4 | 12.9 | 0.00 | 0.00 | 0.00 | 38 | 1014.0 |
| 20260503174538 | 18 | 254 | 4.8 | 11.3 | 0.00 | 0.00 | 0.00 | 37 | 1014.2 |
| 20260503174030 | 18 | 94 | 4.8 | 11.3 | 0.00 | 0.00 | 0.00 | 37 | 1014.1 |
| 20260503173526 | 18 | 27 | 3.2 | 11.3 | 0.00 | 0.00 | 0.00 | 38 | 1014.3 |
| 20260503173042 | 18 | 139 | 1.6 | 8.0 | 0.00 | 0.00 | 0.00 | 42 | 1014.2 |
| 20260503172526 | 18 | 16 | 1.6 | 8.0 | 0.00 | 0.00 | 0.00 | 40 | 1014.3 |
| 20260503172026 | 18 | 82 | 4.8 | 8.0 | 0.00 | 0.00 | 0.00 | 40 | 1014.4 |
| 20260503171539 | 18 | 319 | 3.2 | 11.3 | 0.00 | 0.00 | 0.00 | 45 | 1014.5 |
| 20260503171025 | 17 | 0 | 3.2 | 11.3 | 0.00 | 0.00 | 0.00 | 43 | 1014.5 |
| 20260503170527 | 17 | 12 | 4.8 | 8.0 | 0.00 | 0.00 | 0.00 | 46 | 1014.5 |
| 20260503150525 | 13 | 51 | 1.6 | 6.4 | 0.00 | 0.00 | 0.00 | 56 | 1015.6 |
| 20260503131025 | 8 | 212 | 1.6 | 6.4 | 0.00 | 0.00 | 0.00 | 69 | 1015.6 |
| 20260503130529 | 8 | 0 | 0.0 | 3.2 | 0.00 | 0.00 | 0.00 | 70 | 1015.7 |
| 20260503110526 | 7 | 0 | 0.0 | 3.2 | 0.00 | 0.00 | 0.00 | 70 | 1015.0 |
| 20260503081536 | 8 | 188 | 1.6 | 6.4 | 0.00 | 0.00 | 0.00 | 63 | 1014.9 |
| 20260503081023 | 8 | 131 | 1.6 | 4.8 | 0.00 | 0.00 | 0.00 | 63 | 1014.9 |
| 20260503080524 | 8 | 181 | 1.6 | 4.8 | 0.00 | 0.00 | 0.00 | 64 | 1015.0 |
| 20260503072524 | 10 | 226 | 0.0 | 6.4 | 0.00 | 0.00 | 0.00 | 62 | 1015.1 |
| 20260503072027 | 10 | 209 | 3.2 | 6.4 | 0.00 | 0.00 | 0.00 | 61 | 1015.1 |
| 20260503071537 | 10 | 232 | 1.6 | 4.8 | 0.00 | 0.00 | 0.00 | 61 | 1015.2 |
| 20260503071027 | 10 | 230 | 0.0 | 4.8 | 0.00 | 0.00 | 0.00 | 61 | 1015.1 |
| 20260503070530 | 10 | 245 | 0.0 | 4.8 | 0.00 | 0.00 | 0.00 | 62 | 1015.0 |
| 20260503055023 | 11 | 0 | 0.0 | 0.0 | 0.00 | 0.00 | 0.00 | 55 | 1014.9 |
| 20260503054543 | 11 | 0 | 0.0 | 0.0 | 0.00 | 0.00 | 0.00 | 56 | 1014.9 |
| 20260503054027 | 11 | 0 | 0.0 | 3.2 | 0.00 | 0.00 | 0.00 | 55 | 1014.9 |
| 20260503053527 | 11 | 0 | 0.0 | 4.8 | 0.00 | 0.00 | 0.00 | 54 | 1014.9 |
| 20260503053037 | 12 | 0 | 0.0 | 4.8 | 0.00 | 0.00 | 0.00 | 52 | 1014.9 |
| 20260503052526 | 12 | 253 | 1.6 | 4.8 | 0.00 | 0.00 | 0.00 | 51 | 1015.0 |
| 20260503052028 | 12 | 0 | 1.6 | 6.4 | 0.00 | 0.00 | 0.00 | 51 | 1015.1 |
| 20260503051537 | 12 | 262 | 0.0 | 6.4 | 0.00 | 0.00 | 0.00 | 51 | 1015.0 |
| 20260503051027 | 12 | 262 | 1.6 | 6.4 | 0.00 | 0.00 | 0.00 | 51 | 1014.9 |
| 20260503050523 | 12 | 0 | 0.0 | 6.4 | 0.00 | 0.00 | 0.00 | 51 | 1014.9 |
| 20260503050038 | 12 | 245 | 1.6 | 6.4 | 0.00 | 0.00 | 0.00 | 51 | 1014.9 |
| 20260503045526 | 12 | 259 | 1.6 | 4.8 | 0.00 | 0.00 | 0.00 | 51 | 1014.8 |
| 20260503045027 | 13 | 0 | 0.0 | 4.8 | 0.00 | 0.00 | 0.00 | 51 | 1014.7 |
| 20260503044552 | 13 | 0 | 0.0 | 4.8 | 0.00 | 0.00 | 0.00 | 51 | 1014.7 |
| 20260503044027 | 13 | 359 | 1.6 | 4.8 | 0.00 | 0.00 | 0.00 | 51 | 1014.7 |
| 20260503043527 | 13 | 13 | 1.6 | 4.8 | 0.00 | 0.00 | 0.00 | 50 | 1014.8 |
| 20260503043043 | 13 | 22 | 0.0 | 4.8 | 0.00 | 0.00 | 0.00 | 49 | 1014.9 |
| 20260503042526 | 13 | 0 | 1.6 | 4.8 | 0.00 | 0.00 | 0.00 | 48 | 1014.8 |
| 20260503042025 | 13 | 23 | 1.6 | 4.8 | 0.00 | 0.00 | 0.00 | 48 | 1014.8 |
| 20260503041537 | 13 | 0 | 1.6 | 6.4 | 0.00 | 0.00 | 0.00 | 47 | 1014.8 |
| 20260503041024 | 13 | 0 | 1.6 | 6.4 | 0.00 | 0.00 | 0.00 | 47 | 1014.8 |
| 20260503040525 | 13 | 49 | 3.2 | 6.4 | 0.00 | 0.00 | 0.00 | 47 | 1014.8 |
| 20260503040049 | 13 | 22 | 1.6 | 6.4 | 0.00 | 0.00 | 0.00 | 47 | 1014.7 |
| 20260503035525 | 13 | 17 | 1.6 | 6.4 | 0.00 | 0.00 | 0.00 | 46 | 1014.7 |
| 20260503035025 | 13 | 15 | 3.2 | 6.4 | 0.00 | 0.00 | 0.00 | 46 | 1014.6 |
| 20260503034539 | 13 | 21 | 0.0 | 6.4 | 0.00 | 0.00 | 0.00 | 46 | 1014.6 |
| 20260503034028 | 13 | 70 | 3.2 | 6.4 | 0.00 | 0.00 | 0.00 | 45 | 1014.4 |
| 20260503033526 | 14 | 103 | 1.6 | 4.8 | 0.00 | 0.00 | 0.00 | 44 | 1014.4 |